Date,TemperatureHighF,TemperatureAvgF,TemperatureLowF,DewpointHighF,DewpointAvgF,DewpointLowF,HumidityHigh,HumidityAvg,HumidityLow,PressureMaxIn,PressureMinIn,WindSpeedMaxMPH,WindSpeedAvgMPH,GustSpeedMaxMPH,PrecipitationSumIn
2013-1-1,20.3,6.7,-12.0,17.5,2.6,-17.2,90,83,77,30.34,30.02,6,1,8,0.00
2013-1-2,25.0,16.3,10.0,22.7,13.2,5.1,93,87,77,30.17,29.93,11,3,16,0.00
2013-1-3,17.2,8.6,0.0,13.2,3.8,-4.6,87,80,72,30.34,30.08,11,4,13,0.00
2013-1-4,28.2,17.9,9.3,16.6,11.9,6.2,88,78,61,30.14,30.04,5,1,9,0.00
2013-1-5,23.5,12.6,5.6,14.3,8.3,2.3,89,83,68,30.11,29.88,10,3,14,0.00
2013-1-6,19.7,12.7,7.4,14.8,9.3,0.8,90,86,74,30.27,29.92,11,4,14,0.00
2013-1-7,34.3,26.6,20.8,24.3,20.7,15.3,89,79,65,29.95,29.85,8,2,14,0.01
2013-1-8,32.4,23.8,14.9,26.6,20.5,12.5,92,87,79,29.96,29.70,9,3,16,0.00
2013-1-9,32.9,28.7,24.8,27.6,23.5,19.1,87,81,77,30.27,29.89,10,2,14,0.00
2013-1-10,36.8,33.0,29.0,33.5,26.9,22.7,100,79,61,30.20,29.64,0,0,0,0.01
2013-1-11,37.9,35.9,23.8,37.9,35.9,22.8,100,100,98,29.64,29.31,0,0,0,0.05
2013-1-12,23.2,6.9,0.3,22.5,1.2,-6.2,97,77,67,30.15,29.38,11,4,16,0.00
2013-1-13,6.0,1.6,-3.1,1.1,-4.4,-8.8,82,75,68,30.29,30.13,9,4,14,0.00
2013-1-14,9.5,3.6,-4.1,3.0,-2.0,-8.7,83,77,65,30.46,30.30,6,1,11,0.00
2013-1-15,23.9,14.5,3.7,13.7,7.0,-0.1,85,73,58,30.30,29.76,10,3,15,0.00
2013-1-16,33.5,21.0,-0.6,32.6,15.0,-8.6,98,78,52,30.31,29.63,11,2,13,0.00
2013-1-17,18.0,8.2,-1.6,9.2,-0.7,-10.5,76,67,54,30.45,30.26,9,2,13,0.00
2013-1-18,36.9,27.0,14.1,28.0,20.7,-99.9,92,79,68,30.26,29.73,8,3,17,0.00
2013-1-19,37.2,18.5,-2.4,29.8,12.6,-9.4,93,78,57,30.31,29.67,23,8,28,0.01
2013-1-20,7.0,-1.3,-7.5,-0.7,-9.2,-15.9,73,68,63,30.49,30.30,12,6,15,0.00
2013-1-21,-5.4,-10.1,-14.3,-14.7,-18.4,-22.2,75,66,58,30.46,30.34,9,4,13,0.00
2013-1-22,3.2,-6.8,-17.2,-4.1,-14.0,-24.1,75,70,62,30.48,30.29,3,0,7,0.00
2013-1-23,8.1,0.9,-10.5,2.8,-7.5,-19.1,85,68,49,30.69,30.21,21,7,28,0.00
2013-1-24,11.7,-0.6,-10.5,1.2,-10.9,-20.1,66,61,54,30.73,30.16,13,5,21,0.00
2013-1-25,16.4,6.5,-3.3,10.4,-1.3,-9.3,77,70,63,30.38,29.98,17,7,23,0.00
2013-1-26,20.2,7.7,-5.4,10.8,0.1,-11.3,77,71,63,30.39,30.07,12,4,16,0.00
2013-1-27,30.9,27.1,20.2,30.1,21.7,10.5,97,80,65,30.07,29.77,8,2,13,0.01
2013-1-28,31.6,30.8,30.6,31.6,30.5,30.0,100,99,97,29.83,29.78,0,0,0,0.00